Location: Livorno
(43.5500°N, 10.3170°E)
Time: 18:54:43
(UTC+01:00)

Envisat - Pass Details

Date: 04 November 2020
Orbit: 764 x 766 km, 98.1° (Epoch: 05 December)

Event Time Altitude Azimuth Distance (km) Brightness Sun altitude
Rises 04:43:41 0° 36° (NE) 3,240 6.8 -24.8°
Reaches altitude 10° 04:48:23 10° 76° (ENE) 2,305 6.5 -23.9°
Maximum altitude 04:49:20 11° 87° (E) 2,269 6.5 -23.8°
Drops below altitude 10° 04:50:17 10° 98° (E) 2,301 6.5 -23.6°
Sets 04:54:55 0° 137° (SE) 3,218 6.9 -22.7°
